SJX002 RCTP-KLAX

Flight info

Callsign SJX002
Flight time N/A
Altitude 33000
Route MOLKA1C MOLKA M750 MUKEP Y891 OVSUN/N0495F340 Y893 IGMIS/N0496F330 Y57 POROT Y809 IDLAN Y812 ADNAP OTR5 KALNA DCT 43N160E/N0488F350 44N170E 43N180E 41N170W/N0494F370 40N160W 39N150W 37N140W 34N130W/N0480F390 33N127W DCT EDSEL DCT FICKY GOATZ2
Aircraft A359/H-SDE2E3GHIJ3J4J5LM1ORWXY/LB1D1

Departure

Time 2026-05-05 18:10
Airport Taiwan Taoyuan International Airport (RCTP)

Arrival

Time N/A
Airport Los Angeles International Airport (KLAX)
Time Latitude Longitude Altitude Speed Heading
2026-05-05 17:12 25.08080 121.23275 105 ft 0 kts 139°
2026-05-05 17:50 25.08082 121.23272 107 ft 3 kts 139°
2026-05-05 17:50 25.08103 121.23253 105 ft 4 kts 139°
2026-05-05 17:51 25.08123 121.23234 105 ft 4 kts 139°
2026-05-05 17:51 25.08139 121.23218 105 ft 4 kts 130°
2026-05-05 17:51 25.08151 121.23194 105 ft 4 kts 85°
2026-05-05 17:51 25.08142 121.23171 104 ft 4 kts 49°
2026-05-05 17:52 25.08126 121.23150 104 ft 2 kts 49°
2026-05-05 17:52 25.08125 121.23149 104 ft 5 kts 49°
2026-05-05 17:57 25.08125 121.23150 107 ft 0 kts 49°
2026-05-05 18:01 25.08142 121.23160 104 ft 5 kts 13°
2026-05-05 18:01 25.08193 121.23128 107 ft 12 kts 310°
2026-05-05 18:01 25.08163 121.23029 107 ft 18 kts 229°
2026-05-05 18:01 25.08064 121.22904 106 ft 25 kts 228°
2026-05-05 18:02 25.07959 121.22771 104 ft 18 kts 230°
2026-05-05 18:02 25.07876 121.22665 107 ft 18 kts 229°
2026-05-05 18:02 25.07797 121.22563 105 ft 17 kts 229°
2026-05-05 18:02 25.07719 121.22463 107 ft 18 kts 229°
2026-05-05 18:03 25.07633 121.22353 104 ft 20 kts 229°
2026-05-05 18:03 25.07537 121.22235 106 ft 21 kts 229°
2026-05-05 18:03 25.07434 121.22107 105 ft 23 kts 228°
2026-05-05 18:03 25.07332 121.21981 105 ft 22 kts 228°
2026-05-05 18:04 25.07236 121.21857 105 ft 21 kts 230°
2026-05-05 18:04 25.07190 121.21791 106 ft 6 kts 242°
2026-05-05 18:04 25.07189 121.21749 105 ft 5 kts 282°
2026-05-05 18:04 25.07210 121.21710 105 ft 6 kts 313°
2026-05-05 18:05 25.07220 121.21700 105 ft 0 kts 316°
2026-05-05 18:07 25.07223 121.21697 105 ft 2 kts 316°
2026-05-05 18:08 25.07241 121.21678 106 ft 6 kts 316°
2026-05-05 18:08 25.07284 121.21647 105 ft 9 kts 345°
2026-05-05 18:08 25.07350 121.21681 105 ft 13 kts 43°
2026-05-05 18:08 25.07422 121.21767 107 ft 19 kts 49°
2026-05-05 18:09 25.07592 121.21983 105 ft 62 kts 49°
2026-05-05 18:09 25.07981 121.22475 106 ft 107 kts 49°
2026-05-05 18:09 25.08565 121.23214 106 ft 147 kts 50°
2026-05-05 18:09 25.09306 121.24172 167 ft 175 kts 49°
2026-05-05 18:10 25.10090 121.25145 642 ft 168 kts 47°
2026-05-05 18:10 25.10885 121.26103 978 ft 171 kts 47°
2026-05-05 18:10 25.11660 121.27120 1274 ft 177 kts 50°
2026-05-05 18:10 25.12465 121.28181 1422 ft 189 kts 49°
2026-05-05 18:11 25.13339 121.29319 1622 ft 201 kts 49°
2026-05-05 18:11 25.14275 121.30536 1834 ft 214 kts 49°
2026-05-05 18:11 25.15270 121.31825 2055 ft 227 kts 49°
2026-05-05 18:11 25.16325 121.33193 2265 ft 242 kts 49°
2026-05-05 18:12 25.17452 121.34655 2445 ft 258 kts 49°
2026-05-05 18:12 25.18638 121.36196 2738 ft 268 kts 49°
2026-05-05 18:12 25.19859 121.37783 3130 ft 275 kts 50°
2026-05-05 18:12 25.21092 121.39386 3536 ft 279 kts 49°
2026-05-05 18:13 25.22353 121.41026 4020 ft 281 kts 49°
2026-05-05 18:13 25.23623 121.42678 4492 ft 283 kts 49°
2026-05-05 18:13 25.24903 121.44345 4935 ft 286 kts 49°
2026-05-05 18:13 25.26195 121.46027 5398 ft 288 kts 49°
2026-05-05 18:14 25.27443 121.47766 5896 ft 289 kts 57°
2026-05-05 18:14 25.28198 121.49816 6398 ft 290 kts 76°
2026-05-05 18:14 25.28644 121.52007 6813 ft 294 kts 78°
2026-05-05 18:14 25.29063 121.54243 7180 ft 301 kts 78°
2026-05-05 18:15 25.29494 121.56523 7598 ft 306 kts 78°
2026-05-05 18:15 25.29938 121.58835 8067 ft 309 kts 77°
2026-05-05 18:15 25.30384 121.61136 8575 ft 312 kts 77°
2026-05-05 18:15 25.30844 121.63496 9028 ft 316 kts 77°
2026-05-05 18:16 25.31310 121.65887 9503 ft 320 kts 77°
2026-05-05 18:16 25.31781 121.68302 9947 ft 324 kts 77°
2026-05-05 18:16 25.32260 121.70758 10262 ft 333 kts 77°
2026-05-05 18:16 25.32757 121.73308 10478 ft 345 kts 77°
2026-05-05 18:17 25.33270 121.75942 10703 ft 357 kts 77°
2026-05-05 18:17 25.33800 121.78666 10919 ft 368 kts 77°
2026-05-05 18:17 25.34346 121.81473 11143 ft 379 kts 78°
2026-05-05 18:17 25.34905 121.84358 11370 ft 389 kts 78°
2026-05-05 18:18 25.35471 121.87283 11584 ft 399 kts 78°
2026-05-05 18:18 25.36058 121.90317 11800 ft 408 kts 78°
2026-05-05 18:18 25.36655 121.93402 12130 ft 412 kts 78°
2026-05-05 18:18 25.37257 121.96517 12506 ft 416 kts 79°
2026-05-05 18:19 25.37863 121.99657 12882 ft 419 kts 79°
2026-05-05 18:19 25.38472 122.02817 13259 ft 422 kts 79°
2026-05-05 18:19 25.39085 122.06002 13649 ft 425 kts 79°
2026-05-05 18:19 25.39702 122.09215 13907 ft 430 kts 79°
2026-05-05 18:20 25.40326 122.12463 14242 ft 432 kts 79°
2026-05-05 18:20 25.40942 122.15674 14580 ft 434 kts 79°
2026-05-05 18:20 25.41571 122.18949 14898 ft 437 kts 79°
2026-05-05 18:20 25.42395 122.22194 15219 ft 440 kts 71°
2026-05-05 18:21 25.43448 122.25391 15521 ft 443 kts 70°
2026-05-05 18:21 25.44532 122.28587 15830 ft 446 kts 70°
2026-05-05 18:21 25.45623 122.31809 16132 ft 448 kts 70°
2026-05-05 18:21 25.46715 122.35046 16430 ft 450 kts 70°
2026-05-05 18:22 25.47804 122.38282 16915 ft 447 kts 70°
2026-05-05 18:22 25.48875 122.41470 17217 ft 449 kts 70°
2026-05-05 18:22 25.49964 122.44718 17483 ft 452 kts 71°
2026-05-05 18:22 25.51060 122.47991 17772 ft 455 kts 71°
2026-05-05 18:23 25.52162 122.51286 18055 ft 457 kts 71°
2026-05-05 18:23 25.53268 122.54594 18331 ft 459 kts 71°
2026-05-05 18:23 25.54384 122.57936 18398 ft 467 kts 71°
2026-05-05 18:23 25.55514 122.61322 18557 ft 471 kts 71°
2026-05-05 18:24 25.56646 122.64718 18991 ft 466 kts 71°
2026-05-05 18:24 25.57765 122.68078 19338 ft 466 kts 71°
2026-05-05 18:24 25.58874 122.71411 19513 ft 469 kts 71°
2026-05-05 18:24 25.60004 122.74812 19742 ft 472 kts 71°
2026-05-05 18:25 25.61140 122.78230 19978 ft 474 kts 71°
2026-05-05 18:25 25.61894 122.80502 20121 ft 476 kts 71°
2026-05-05 18:25 25.63423 122.85114 20444 ft 478 kts 71°
2026-05-05 18:25 25.64575 122.88588 20672 ft 481 kts 70°
2026-05-05 18:26 25.65744 122.92056 20974 ft 481 kts 70°
2026-05-05 18:26 25.66907 122.95489 21203 ft 483 kts 70°
2026-05-05 18:26 25.68089 122.98985 21409 ft 486 kts 70°
2026-05-05 18:26 25.69285 123.02507 21566 ft 491 kts 69°
2026-05-05 18:27 25.70813 123.05905 21771 ft 494 kts 57°
2026-05-05 18:27 25.72974 123.08851 22024 ft 493 kts 43°
2026-05-05 18:27 25.75479 123.11440 22257 ft 494 kts 39°
2026-05-05 18:27 25.78056 123.13971 22496 ft 496 kts 39°
2026-05-05 18:28 25.83265 123.19039 22968 ft 499 kts 39°
2026-05-05 18:28 25.85847 123.21548 23192 ft 502 kts 39°
2026-05-05 18:28 25.88479 123.24106 23432 ft 504 kts 39°
2026-05-05 18:29 25.91124 123.26676 23636 ft 506 kts 39°
2026-05-05 18:29 25.93780 123.29260 23867 ft 508 kts 39°
2026-05-05 18:29 25.96441 123.31851 24096 ft 510 kts 39°
2026-05-05 18:29 25.99111 123.34451 24317 ft 511 kts 39°
2026-05-05 18:30 26.01794 123.37064 24562 ft 513 kts 39°
2026-05-05 18:30 26.04479 123.39683 24800 ft 515 kts 39°
2026-05-05 18:30 26.07180 123.42318 25045 ft 517 kts 39°
2026-05-05 18:30 26.09893 123.44965 25267 ft 521 kts 39°
2026-05-05 18:31 26.12594 123.47603 25367 ft 526 kts 39°
2026-05-05 18:31 26.15347 123.50294 25617 ft 528 kts 39°
2026-05-05 18:31 26.18111 123.52998 25901 ft 529 kts 39°
2026-05-05 18:31 26.20876 123.55704 26159 ft 531 kts 39°
2026-05-05 18:32 26.23652 123.58423 26411 ft 533 kts 39°
2026-05-05 18:32 26.26439 123.61154 26659 ft 535 kts 39°
2026-05-05 18:32 26.29238 123.63899 26956 ft 537 kts 39°
2026-05-05 18:32 26.32055 123.66663 27022 ft 543 kts 39°
2026-05-05 18:33 26.34899 123.69455 27234 ft 544 kts 40°
2026-05-05 18:33 26.37694 123.72203 27654 ft 542 kts 40°
2026-05-05 18:33 26.40529 123.74991 27892 ft 545 kts 40°
2026-05-05 18:33 26.43375 123.77791 28104 ft 547 kts 40°
2026-05-05 18:34 26.46232 123.80605 28330 ft 549 kts 40°
2026-05-05 18:34 26.49100 123.83431 28561 ft 551 kts 40°
2026-05-05 18:34 26.51986 123.86275 28662 ft 556 kts 40°
2026-05-05 18:34 26.54891 123.89141 28794 ft 559 kts 40°
2026-05-05 18:35 26.57810 123.92025 29053 ft 560 kts 40°
2026-05-05 18:35 26.60729 123.94909 29286 ft 561 kts 40°
2026-05-05 18:35 26.63610 123.97760 29555 ft 560 kts 40°
2026-05-05 18:35 26.66415 124.00789 29833 ft 561 kts 47°
2026-05-05 18:36 26.69016 124.04041 29981 ft 564 kts 49°
2026-05-05 18:36 26.71557 124.07394 30126 ft 566 kts 50°
2026-05-05 18:36 26.74066 124.10790 30282 ft 567 kts 50°
2026-05-05 18:36 26.76568 124.14203 30432 ft 568 kts 50°
2026-05-05 18:37 26.79081 124.17626 30583 ft 569 kts 50°
2026-05-05 18:37 26.81601 124.21044 30792 ft 569 kts 50°
2026-05-05 18:37 26.84083 124.24396 31144 ft 564 kts 50°
2026-05-05 18:37 26.86580 124.27759 31564 ft 559 kts 50°
2026-05-05 18:38 26.89069 124.31106 31699 ft 562 kts 51°
2026-05-05 18:38 26.91577 124.34480 31666 ft 566 kts 51°
2026-05-05 18:38 26.94097 124.37872 31865 ft 565 kts 51°
2026-05-05 18:38 26.96605 124.41251 32115 ft 564 kts 51°
2026-05-05 18:39 26.99108 124.44630 32308 ft 563 kts 51°
2026-05-05 18:39 27.01611 124.48012 32472 ft 563 kts 51°
2026-05-05 18:39 27.04070 124.51331 32831 ft 558 kts 50°
2026-05-05 18:39 27.06547 124.54674 33043 ft 558 kts 51°
2026-05-05 18:40 27.11540 124.61422 33024 ft 565 kts 51°
2026-05-05 18:40 27.16564 124.68227 33322 ft 564 kts 51°
2026-05-05 18:41 27.19060 124.71610 33605 ft 561 kts 52°
2026-05-05 18:41 27.21546 124.74985 33798 ft 558 kts 51°
2026-05-05 18:41 27.23999 124.78316 34329 ft 549 kts 52°
2026-05-05 18:41 27.26401 124.81580 34380 ft 551 kts 52°
2026-05-05 18:42 27.31309 124.88261 34400 ft 556 kts 52°
2026-05-05 18:42 27.36243 124.94986 34450 ft 559 kts 52°
2026-05-05 18:43 27.41199 125.01748 34675 ft 557 kts 51°
2026-05-05 18:43 27.46193 125.08491 34583 ft 566 kts 52°
2026-05-05 18:44 27.48681 125.11839 34684 ft 565 kts 51°
2026-05-05 18:44 27.51206 125.15240 34809 ft 565 kts 51°
2026-05-05 18:44 27.56240 125.22037 34950 ft 565 kts 51°
2026-05-05 18:45 27.61274 125.28855 35089 ft 566 kts 51°
2026-05-05 18:45 27.66309 125.35689 35237 ft 567 kts 51°
2026-05-05 18:46 27.71310 125.42485 35362 ft 567 kts 51°
2026-05-05 18:46 27.76343 125.49336 35485 ft 567 kts 51°
2026-05-05 18:47 27.81384 125.56208 35606 ft 568 kts 51°
2026-05-05 18:47 27.86418 125.63082 35711 ft 568 kts 51°
2026-05-05 18:48 27.91417 125.69920 35824 ft 568 kts 51°
2026-05-05 18:48 27.96461 125.76830 35773 ft 573 kts 51°
2026-05-05 18:49 28.01538 125.83798 35855 ft 573 kts 51°
2026-05-05 18:49 28.06606 125.90762 35962 ft 573 kts 51°
2026-05-05 18:50 28.11640 125.97693 36080 ft 574 kts 51°
2026-05-05 18:50 28.14187 126.01203 35909 ft 580 kts 51°
2026-05-05 18:50 28.16749 126.04736 35909 ft 580 kts 51°
2026-05-05 18:51 28.19307 126.08268 36011 ft 579 kts 51°
2026-05-05 18:51 28.21866 126.11804 36067 ft 579 kts 51°
2026-05-05 18:51 28.26975 126.18873 36154 ft 580 kts 51°
2026-05-05 18:52 28.32064 126.25926 36105 ft 583 kts 50°
2026-05-05 18:52 28.34624 126.29480 36230 ft 581 kts 50°
2026-05-05 18:52 28.37185 126.33036 36309 ft 581 kts 50°
2026-05-05 18:53 28.42293 126.40138 36372 ft 581 kts 50°
2026-05-05 18:53 28.47402 126.47254 36451 ft 581 kts 50°
2026-05-05 18:54 28.52511 126.54382 36534 ft 581 kts 50°
2026-05-05 18:54 28.57570 126.61453 36596 ft 581 kts 50°
2026-05-05 18:55 28.62660 126.68578 36686 ft 581 kts 50°
2026-05-05 18:55 28.67759 126.75728 36692 ft 582 kts 50°
2026-05-05 18:56 28.72859 126.82892 36783 ft 581 kts 50°
2026-05-05 18:56 28.77908 126.89998 36855 ft 581 kts 50°
2026-05-05 18:57 28.83002 126.97178 36881 ft 582 kts 50°
2026-05-05 18:57 28.88077 127.04344 36881 ft 582 kts 50°
2026-05-05 18:58 28.93164 127.11540 36950 ft 582 kts 50°
2026-05-05 18:58 28.97672 127.17925 36929 ft 584 kts 50°
2026-05-05 18:59 29.02766 127.25154 36972 ft 584 kts 50°
2026-05-05 18:59 29.07857 127.32391 36969 ft 585 kts 50°
2026-05-05 19:00 29.12949 127.39643 37013 ft 585 kts 50°
2026-05-05 19:00 29.18041 127.46907 37042 ft 586 kts 50°
2026-05-05 19:01 29.23103 127.54141 37049 ft 586 kts 50°
2026-05-05 19:01 29.28200 127.61437 37059 ft 587 kts 50°
2026-05-05 19:02 29.33306 127.68760 37059 ft 588 kts 50°
2026-05-05 19:02 29.38408 127.76090 37059 ft 589 kts 50°
2026-05-05 19:03 29.43487 127.83400 37066 ft 590 kts 50°
2026-05-05 19:03 29.48599 127.90771 37064 ft 591 kts 50°
2026-05-05 19:04 29.53716 127.98164 37063 ft 592 kts 50°
2026-05-05 19:04 29.58837 128.05570 37073 ft 593 kts 50°
2026-05-05 19:05 29.63942 128.12956 37071 ft 594 kts 50°
2026-05-05 19:05 29.69078 128.20404 37060 ft 595 kts 50°
2026-05-05 19:06 29.74207 128.27859 37071 ft 595 kts 50°
2026-05-05 19:06 29.79335 128.35325 37072 ft 594 kts 50°
2026-05-05 19:07 29.84450 128.42788 37072 ft 594 kts 50°
2026-05-05 19:07 29.89532 128.50214 37076 ft 594 kts 50°
2026-05-05 19:08 29.94639 128.57693 37072 ft 594 kts 50°
2026-05-05 19:08 29.99752 128.65192 37075 ft 594 kts 50°
2026-05-05 19:09 30.04853 128.72690 37075 ft 594 kts 50°
2026-05-05 19:09 30.09922 128.80153 37075 ft 595 kts 50°
2026-05-05 19:10 30.15024 128.87679 37075 ft 594 kts 51°
2026-05-05 19:10 30.20113 128.95201 37075 ft 595 kts 50°
2026-05-05 19:11 30.25207 129.02748 37078 ft 595 kts 50°
2026-05-05 19:11 30.30264 129.10253 37078 ft 595 kts 50°
2026-05-05 19:12 30.35353 129.17812 37080 ft 595 kts 50°
2026-05-05 19:12 30.40429 129.25368 37081 ft 594 kts 50°
2026-05-05 19:13 30.45501 129.32935 37101 ft 595 kts 50°
2026-05-05 19:13 30.50567 129.40508 37079 ft 594 kts 50°
2026-05-05 19:14 30.55593 129.48034 37083 ft 594 kts 50°
2026-05-05 19:14 30.60645 129.55616 37099 ft 594 kts 50°
2026-05-05 19:15 30.65699 129.63214 37087 ft 594 kts 50°
2026-05-05 19:15 30.70739 129.70804 37087 ft 592 kts 50°
2026-05-05 19:16 30.75735 129.78238 37085 ft 575 kts 49°
2026-05-05 19:16 30.80547 129.85422 37087 ft 558 kts 50°
2026-05-05 19:17 30.85084 129.92581 37093 ft 541 kts 56°
2026-05-05 19:17 30.89051 129.99856 37084 ft 523 kts 56°
2026-05-05 19:18 30.92801 130.06911 37077 ft 501 kts 57°
2026-05-05 19:18 30.94608 130.10327 37074 ft 490 kts 57°
2026-05-05 19:18 30.96372 130.13660 37079 ft 477 kts 56°
2026-05-05 19:19 30.98070 130.16863 37058 ft 466 kts 57°
2026-05-05 19:19 30.99791 130.20066 36810 ft 469 kts 57°
2026-05-05 19:19 31.01552 130.23278 36616 ft 470 kts 56°
2026-05-05 19:19 31.03332 130.26457 36479 ft 467 kts 55°
2026-05-05 19:20 31.06942 130.32692 36283 ft 463 kts 54°
2026-05-05 19:20 31.08796 130.35782 36059 ft 465 kts 53°
2026-05-05 19:20 31.10683 130.38845 35917 ft 465 kts 52°
2026-05-05 19:21 31.14513 130.44805 35762 ft 461 kts 50°
2026-05-05 19:21 31.16500 130.47759 35497 ft 465 kts 50°
2026-05-05 19:21 31.18543 130.50692 35369 ft 464 kts 48°
2026-05-05 19:22 31.22703 130.56354 35326 ft 458 kts 46°
2026-05-05 19:22 31.24855 130.59122 35112 ft 461 kts 44°
2026-05-05 19:22 31.27062 130.61848 34948 ft 462 kts 43°
2026-05-05 19:23 31.31566 130.67088 34864 ft 458 kts 40°
2026-05-05 19:23 31.33890 130.69631 34719 ft 458 kts 39°
2026-05-05 19:23 31.36270 130.72123 34587 ft 459 kts 37°
2026-05-05 19:24 31.41155 130.76896 34477 ft 455 kts 34°
2026-05-05 19:24 31.46200 130.81370 34308 ft 455 kts 30°
2026-05-05 19:25 31.48749 130.83476 34160 ft 454 kts 30°
2026-05-05 19:25 31.51356 130.85579 33779 ft 458 kts 30°
2026-05-05 19:25 31.53975 130.87720 33618 ft 459 kts 30°
2026-05-05 19:25 31.56543 130.89883 33874 ft 449 kts 31°
2026-05-05 19:26 31.59032 130.92053 33986 ft 444 kts 32°
2026-05-05 19:26 31.61492 130.94273 33770 ft 449 kts 34°
2026-05-05 19:26 31.63966 130.96579 33404 ft 459 kts 34°
2026-05-05 19:26 31.66441 130.98963 33314 ft 459 kts 36°
2026-05-05 19:27 31.68853 131.01367 33516 ft 451 kts 37°
2026-05-05 19:27 31.71196 131.03782 33633 ft 446 kts 38°
2026-05-05 19:27 31.75762 131.08723 33231 ft 456 kts 40°
2026-05-05 19:28 31.78058 131.11331 33006 ft 462 kts 41°
2026-05-05 19:28 31.80327 131.13997 33062 ft 457 kts 43°
2026-05-05 19:28 31.82514 131.16658 33292 ft 449 kts 45°
2026-05-05 19:28 31.84623 131.19347 33294 ft 447 kts 46°
2026-05-05 19:29 31.86681 131.22100 33168 ft 450 kts 48°
2026-05-05 19:29 31.88678 131.24906 32930 ft 456 kts 49°
2026-05-05 19:29 31.90700 131.27786 32812 ft 457 kts 47°
2026-05-05 19:29 31.92770 131.30622 32796 ft 455 kts 46°
2026-05-05 19:30 31.96960 131.36135 32835 ft 448 kts 45°
2026-05-05 19:30 32.01143 131.41530 32863 ft 445 kts 44°
2026-05-05 19:31 32.03243 131.44218 32720 ft 448 kts 44°
2026-05-05 19:31 32.05340 131.46887 32551 ft 451 kts 44°
2026-05-05 19:31 32.09625 131.52298 32549 ft 448 kts 43°
2026-05-05 19:32 32.13865 131.57593 32616 ft 442 kts 43°
2026-05-05 19:32 32.18132 131.62844 32381 ft 446 kts 42°
2026-05-05 19:33 32.20302 131.65484 32269 ft 448 kts 42°
2026-05-05 19:33 32.22475 131.68113 32293 ft 446 kts 41°
2026-05-05 19:33 32.26751 131.73256 32398 ft 439 kts 41°
2026-05-05 19:34 32.31070 131.78402 32106 ft 445 kts 40°
2026-05-05 19:34 32.33267 131.80997 31977 ft 448 kts 40°
2026-05-05 19:35 32.37646 131.86154 32159 ft 438 kts 40°
2026-05-05 19:35 32.41949 131.91212 32101 ft 437 kts 40°
2026-05-05 19:35 32.44097 131.93727 31901 ft 443 kts 40°
2026-05-05 19:36 32.46297 131.96298 31748 ft 446 kts 39°
2026-05-05 19:36 32.50677 132.01420 31908 ft 437 kts 40°
2026-05-05 19:37 32.54964 132.06450 31896 ft 434 kts 40°
2026-05-05 19:37 32.57125 132.08986 31704 ft 440 kts 39°
2026-05-05 19:37 32.59312 132.11555 31520 ft 445 kts 39°
2026-05-05 19:38 32.63676 132.16712 31658 ft 437 kts 40°
2026-05-05 19:38 32.67886 132.21749 31672 ft 433 kts 40°
2026-05-05 19:38 32.70012 132.24305 31535 ft 437 kts 40°
2026-05-05 19:39 32.72159 132.26893 31354 ft 442 kts 40°
2026-05-05 19:39 32.76453 132.32106 31383 ft 438 kts 40°
2026-05-05 19:39 32.78560 132.34691 31494 ft 433 kts 40°
2026-05-05 19:40 32.80642 132.37263 31469 ft 432 kts 41°
2026-05-05 19:40 32.82730 132.39855 31319 ft 436 kts 41°
2026-05-05 19:40 32.84807 132.42443 31163 ft 440 kts 41°
2026-05-05 19:41 32.88984 132.47694 31307 ft 432 kts 41°
2026-05-05 19:41 32.93049 132.52905 31238 ft 432 kts 43°
2026-05-05 19:41 32.95047 132.55609 31067 ft 438 kts 45°
2026-05-05 19:42 32.97007 132.58410 30985 ft 441 kts 47°
2026-05-05 19:42 33.00670 132.64177 31105 ft 435 kts 51°
2026-05-05 19:43 33.04120 132.70063 31020 ft 436 kts 54°
2026-05-05 19:43 33.05778 132.73118 30854 ft 442 kts 56°
2026-05-05 19:43 33.07370 132.76255 30902 ft 441 kts 59°
2026-05-05 19:43 33.08833 132.79432 31035 ft 433 kts 63°
2026-05-05 19:44 33.10131 132.82630 31161 ft 425 kts 68°
2026-05-05 19:44 33.11242 132.85904 31037 ft 428 kts 73°
2026-05-05 19:44 33.12165 132.89318 30624 ft 439 kts 78°
2026-05-05 19:44 33.12853 132.92851 30268 ft 448 kts 85°
2026-05-05 19:45 33.13272 132.96530 30288 ft 441 kts 92°
2026-05-05 19:45 33.13374 133.00108 30638 ft 421 kts 102°
2026-05-05 19:45 33.13170 133.03496 30919 ft 401 kts 109°
2026-05-05 19:46 33.11871 133.09805 30574 ft 390 kts 127°
2026-05-05 19:46 33.10764 133.12772 30179 ft 392 kts 134°
2026-05-05 19:46 33.09440 133.15510 30145 ft 381 kts 140°
2026-05-05 19:46 33.07964 133.18023 30442 ft 357 kts 146°
2026-05-05 19:47 33.06443 133.20259 30668 ft 345 kts 146°
2026-05-05 19:47 33.05018 133.22725 30093 ft 385 kts 133°
2026-05-05 19:47 33.03825 133.25724 29642 ft 410 kts 125°
2026-05-05 19:48 33.02002 133.32330 29659 ft 436 kts 108°
2026-05-05 19:48 33.01532 133.39683 29667 ft 452 kts 98°
2026-05-05 19:49 33.01518 133.47203 29657 ft 462 kts 96°
2026-05-05 19:49 33.01546 133.54939 29672 ft 471 kts 97°
2026-05-05 19:50 33.01516 133.62827 29687 ft 481 kts 97°
2026-05-05 19:50 33.01451 133.70844 29839 ft 488 kts 97°
2026-05-05 19:51 33.01374 133.78933 30052 ft 494 kts 97°
2026-05-05 19:51 33.01290 133.87205 30154 ft 503 kts 97°
2026-05-05 19:51 33.01247 133.91377 30280 ft 506 kts 97°
2026-05-05 19:52 33.01202 133.95577 30362 ft 509 kts 97°
2026-05-05 19:52 33.01108 134.04051 30520 ft 516 kts 97°
2026-05-05 19:52 33.01058 134.08340 30656 ft 518 kts 97°
2026-05-05 19:53 33.01008 134.12580 30780 ft 520 kts 97°
2026-05-05 19:53 33.00899 134.21235 30987 ft 526 kts 97°
2026-05-05 19:53 33.00842 134.25605 31099 ft 529 kts 97°
2026-05-05 19:54 33.00782 134.30013 31178 ft 533 kts 97°
2026-05-05 19:54 33.00721 134.34432 31283 ft 535 kts 97°
2026-05-05 19:54 33.00658 134.38886 31393 ft 538 kts 97°
2026-05-05 19:54 33.00595 134.43292 31497 ft 541 kts 97°
2026-05-05 19:55 33.00528 134.47770 31611 ft 543 kts 97°
2026-05-05 19:55 33.00460 134.52290 31748 ft 546 kts 97°
2026-05-05 19:55 33.00390 134.56814 31853 ft 548 kts 97°
2026-05-05 19:55 33.00318 134.61355 31957 ft 551 kts 97°
2026-05-05 19:56 33.00243 134.65938 32068 ft 553 kts 97°
2026-05-05 19:56 33.00167 134.70524 32223 ft 555 kts 97°
2026-05-05 19:56 33.00088 134.75137 32288 ft 559 kts 97°
2026-05-05 19:57 33.00578 134.84427 32453 ft 572 kts 88°
2026-05-05 19:57 33.01059 134.89150 32557 ft 575 kts 88°
2026-05-05 19:57 33.01574 134.93868 32657 ft 577 kts 87°
2026-05-05 19:57 33.02106 134.98628 32761 ft 580 kts 87°
2026-05-05 19:58 33.02638 135.03395 32846 ft 581 kts 86°
2026-05-05 19:58 33.03690 135.12972 33071 ft 584 kts 87°
2026-05-05 19:58 33.04209 135.17778 33260 ft 584 kts 87°
2026-05-05 19:59 33.04719 135.22578 33464 ft 583 kts 87°
2026-05-05 19:59 33.05221 135.27307 33657 ft 583 kts 87°
2026-05-05 19:59 33.05729 135.32097 33886 ft 582 kts 87°
2026-05-05 19:59 33.06234 135.36873 34069 ft 581 kts 88°
2026-05-05 20:00 33.06737 135.41649 34200 ft 581 kts 87°
2026-05-05 20:00 33.07739 135.51234 34357 ft 583 kts 87°
2026-05-05 20:00 33.08238 135.56021 34596 ft 580 kts 87°
2026-05-05 20:01 33.08734 135.60803 34667 ft 582 kts 86°
2026-05-05 20:01 33.09723 135.70365 34777 ft 585 kts 86°
2026-05-05 20:01 33.10214 135.75162 34910 ft 584 kts 86°
2026-05-05 20:02 33.10704 135.79983 35014 ft 584 kts 86°
2026-05-05 20:02 33.11189 135.84777 35141 ft 584 kts 86°
2026-05-05 20:02 33.11674 135.89584 35248 ft 584 kts 86°
2026-05-05 20:03 33.12641 135.99212 35430 ft 584 kts 86°
2026-05-05 20:03 33.13595 136.08771 35679 ft 581 kts 86°
2026-05-05 20:03 33.14071 136.13554 35918 ft 579 kts 86°
2026-05-05 20:04 33.14543 136.18320 35935 ft 580 kts 86°
2026-05-05 20:04 33.15480 136.27873 36100 ft 580 kts 86°
2026-05-05 20:05 33.16412 136.37446 36244 ft 580 kts 86°
2026-05-05 20:05 33.17330 136.46946 36335 ft 581 kts 86°
2026-05-05 20:06 33.18254 136.56526 36447 ft 581 kts 86°
2026-05-05 20:06 33.19165 136.66121 36597 ft 580 kts 86°
2026-05-05 20:06 33.19615 136.70900 36736 ft 579 kts 86°
2026-05-05 20:07 33.20063 136.75683 36755 ft 579 kts 86°
2026-05-05 20:07 33.20955 136.85245 36774 ft 581 kts 86°
2026-05-05 20:08 33.21838 136.94777 36917 ft 581 kts 86°
2026-05-05 20:08 33.22720 137.04371 36956 ft 582 kts 86°
2026-05-05 20:09 33.24274 137.13870 37030 ft 584 kts 75°
2026-05-05 20:09 33.26534 137.23190 37118 ft 584 kts 73°
2026-05-05 20:10 33.28867 137.32409 37202 ft 583 kts 73°
2026-05-05 20:10 33.31205 137.41701 37217 ft 585 kts 73°
2026-05-05 20:11 33.33525 137.51032 37213 ft 587 kts 73°
2026-05-05 20:11 33.35835 137.60390 37213 ft 587 kts 73°
2026-05-05 20:12 33.38124 137.69697 37220 ft 587 kts 73°
2026-05-05 20:12 33.40418 137.79055 37219 ft 587 kts 73°
2026-05-05 20:13 33.42740 137.88425 37218 ft 587 kts 70°
2026-05-05 20:13 33.44362 137.92891 37220 ft 583 kts 58°
2026-05-05 20:13 33.46365 137.97110 37217 ft 582 kts 56°
2026-05-05 20:14 33.50562 138.05382 37221 ft 582 kts 54°
2026-05-05 20:14 33.54822 138.13592 37225 ft 584 kts 54°
2026-05-05 20:15 33.59096 138.21880 37222 ft 584 kts 55°
2026-05-05 20:15 33.63349 138.30184 37230 ft 586 kts 55°
2026-05-05 20:16 33.67583 138.38489 37228 ft 587 kts 55°
2026-05-05 20:16 33.71832 138.46847 37228 ft 587 kts 55°
2026-05-05 20:17 33.76088 138.55224 37227 ft 587 kts 55°
2026-05-05 20:17 33.80334 138.63607 37227 ft 587 kts 55°
2026-05-05 20:18 33.84574 138.72006 37230 ft 587 kts 55°
2026-05-05 20:18 33.88781 138.80354 37233 ft 587 kts 55°
2026-05-05 20:19 33.93005 138.88753 37239 ft 587 kts 55°
2026-05-05 20:19 33.97228 138.97167 37238 ft 587 kts 55°
2026-05-05 20:20 34.01448 139.05596 37233 ft 588 kts 55°
2026-05-05 20:20 34.05672 139.14053 37250 ft 589 kts 55°
2026-05-05 20:21 34.09875 139.22485 37256 ft 591 kts 55°
2026-05-05 20:21 34.14102 139.30998 37241 ft 592 kts 55°
2026-05-05 20:22 34.18335 139.39538 37263 ft 592 kts 55°
2026-05-05 20:22 34.22531 139.48009 37246 ft 592 kts 55°
2026-05-05 20:23 34.26747 139.56544 37268 ft 591 kts 55°
2026-05-05 20:23 34.30957 139.65092 37253 ft 591 kts 55°
2026-05-05 20:24 34.35158 139.73643 37272 ft 591 kts 55°
2026-05-05 20:24 34.39353 139.82202 37264 ft 592 kts 55°
2026-05-05 20:25 34.43513 139.90711 37263 ft 592 kts 55°
2026-05-05 20:25 34.47707 139.99310 37272 ft 592 kts 55°
2026-05-05 20:26 34.51893 140.07913 37268 ft 593 kts 55°
2026-05-05 20:26 34.56074 140.16526 37270 ft 593 kts 55°
2026-05-05 20:27 34.60225 140.25102 37276 ft 593 kts 55°
2026-05-05 20:27 34.64393 140.33733 37278 ft 592 kts 55°
2026-05-05 20:28 34.68556 140.42374 37280 ft 592 kts 55°
2026-05-05 20:28 34.72667 140.51038 37275 ft 593 kts 56°
2026-05-05 20:29 34.76672 140.59793 37278 ft 593 kts 57°
2026-05-05 20:29 34.80639 140.68510 37284 ft 593 kts 57°
2026-05-05 20:30 34.84653 140.77299 37284 ft 594 kts 56°
2026-05-05 20:30 34.88677 140.86106 37284 ft 595 kts 57°
2026-05-05 20:31 34.92697 140.94923 37286 ft 596 kts 56°
2026-05-05 20:31 34.96690 141.03707 37287 ft 597 kts 57°
2026-05-05 20:32 35.00708 141.12572 37292 ft 596 kts 57°
2026-05-05 20:32 35.04701 141.21408 37290 ft 595 kts 57°
2026-05-05 20:33 35.08695 141.30264 37307 ft 595 kts 56°
2026-05-05 20:33 35.12656 141.39067 37298 ft 596 kts 57°
2026-05-05 20:34 35.16653 141.47974 37297 ft 598 kts 57°
2026-05-05 20:34 35.20640 141.56889 37298 ft 599 kts 57°
2026-05-05 20:35 35.24631 141.65835 37299 ft 598 kts 57°
2026-05-05 20:35 35.28580 141.74707 37298 ft 598 kts 57°
2026-05-05 20:36 35.32550 141.83650 37298 ft 598 kts 57°
2026-05-05 20:36 35.36513 141.92601 37298 ft 598 kts 57°
2026-05-05 20:37 35.40477 142.01577 37300 ft 598 kts 57°
2026-05-05 20:37 35.44399 142.10484 37301 ft 598 kts 57°
2026-05-05 20:38 35.48342 142.19460 37303 ft 598 kts 57°
2026-05-05 20:38 35.52281 142.28452 37311 ft 598 kts 57°
2026-05-05 20:39 35.56210 142.37444 37308 ft 598 kts 57°
2026-05-05 20:39 35.60141 142.46467 37310 ft 599 kts 57°
2026-05-05 20:40 35.64043 142.55445 37307 ft 599 kts 57°
2026-05-05 20:40 35.67958 142.64479 37309 ft 599 kts 57°
2026-05-05 20:41 35.71867 142.73523 37309 ft 599 kts 57°
2026-05-05 20:41 35.75774 142.82588 37312 ft 599 kts 57°
2026-05-05 20:42 35.79671 142.91653 37313 ft 599 kts 57°
2026-05-05 20:42 35.83529 143.00653 37314 ft 599 kts 57°
2026-05-05 20:43 35.87407 143.09724 37314 ft 598 kts 57°
2026-05-05 20:43 35.91264 143.18840 37312 ft 600 kts 60°
2026-05-05 20:43 35.92733 143.23656 37319 ft 605 kts 73°
2026-05-05 20:44 35.93579 143.28744 37319 ft 606 kts 80°
2026-05-05 20:44 35.94771 143.38967 37319 ft 606 kts 83°
2026-05-05 20:45 35.96276 143.54483 37325 ft 607 kts 83°
2026-05-05 20:45 35.97301 143.64827 37330 ft 607 kts 83°
2026-05-05 20:46 35.98328 143.75083 37338 ft 606 kts 83°
2026-05-05 20:46 35.99361 143.85423 37321 ft 606 kts 83°
2026-05-05 20:47 36.00385 143.95756 37325 ft 607 kts 83°
2026-05-05 20:47 36.01888 144.05977 37330 ft 603 kts 68°
2026-05-05 20:48 36.03565 144.10684 37326 ft 594 kts 54°
2026-05-05 20:48 36.05863 144.14766 37331 ft 581 kts 41°
2026-05-05 20:48 36.11246 144.22151 37328 ft 578 kts 38°
2026-05-05 20:49 36.16824 144.29320 37351 ft 579 kts 38°
2026-05-05 20:49 36.22408 144.36517 37337 ft 579 kts 38°
2026-05-05 20:50 36.27018 144.42535 37332 ft 579 kts 38°
2026-05-05 20:50 36.33435 144.50974 37342 ft 579 kts 38°
2026-05-05 20:51 36.38953 144.58252 37327 ft 579 kts 38°
2026-05-05 20:51 36.44471 144.65542 37331 ft 579 kts 39°
2026-05-05 20:52 36.49984 144.72838 37327 ft 579 kts 39°
2026-05-05 20:52 36.55485 144.80134 37332 ft 579 kts 39°
2026-05-05 20:53 36.60955 144.87405 37329 ft 579 kts 39°
2026-05-05 20:53 36.66447 144.94723 37327 ft 579 kts 39°
2026-05-05 20:54 36.71950 145.02072 37344 ft 579 kts 39°
2026-05-05 20:54 36.77440 145.09419 37326 ft 579 kts 39°
2026-05-05 20:55 36.82892 145.16732 37327 ft 580 kts 39°
2026-05-05 20:55 36.88378 145.24108 37353 ft 580 kts 39°
2026-05-05 20:56 36.93874 145.31515 37332 ft 581 kts 39°
2026-05-05 20:56 36.99368 145.38933 37325 ft 582 kts 39°
2026-05-05 20:57 37.04855 145.46361 37327 ft 582 kts 39°
2026-05-05 20:57 37.10312 145.53767 37334 ft 582 kts 39°
2026-05-05 20:58 37.15794 145.61223 37333 ft 582 kts 39°
2026-05-05 20:58 37.20944 145.69127 37337 ft 593 kts 50°
2026-05-05 20:59 37.25412 145.77764 37333 ft 595 kts 52°
2026-05-05 20:59 37.29788 145.86603 37335 ft 596 kts 52°
2026-05-05 21:00 37.34151 145.95460 37336 ft 596 kts 52°
2026-05-05 21:00 37.38524 146.04304 37336 ft 597 kts 52°
2026-05-05 21:01 37.42909 146.13168 37338 ft 595 kts 51°
2026-05-05 21:01 37.47275 146.22012 37344 ft 595 kts 52°
2026-05-05 21:02 37.51607 146.30813 37341 ft 595 kts 52°
2026-05-05 21:02 37.55955 146.39674 37343 ft 594 kts 52°
2026-05-05 21:03 37.60294 146.48541 37344 ft 594 kts 52°
2026-05-05 21:03 37.64623 146.57409 37344 ft 594 kts 52°
2026-05-05 21:04 37.68918 146.66231 37346 ft 594 kts 52°
2026-05-05 21:04 37.73234 146.75123 37346 ft 594 kts 52°
2026-05-05 21:05 37.77551 146.84039 37343 ft 594 kts 52°
2026-05-05 21:05 37.81856 146.92958 37346 ft 593 kts 52°
2026-05-05 21:06 37.86147 147.01869 37376 ft 593 kts 52°
2026-05-05 21:06 37.90403 147.10733 37342 ft 593 kts 52°
2026-05-05 21:07 37.94675 147.19654 37344 ft 592 kts 52°
2026-05-05 21:07 37.98936 147.28574 37345 ft 592 kts 52°
2026-05-05 21:08 38.03193 147.37512 37345 ft 592 kts 52°
2026-05-05 21:08 38.07435 147.46444 37347 ft 591 kts 52°
2026-05-05 21:09 38.11638 147.55317 37347 ft 590 kts 52°
2026-05-05 21:09 38.15863 147.64263 37346 ft 590 kts 52°
2026-05-05 21:10 38.20078 147.73210 37346 ft 589 kts 53°
2026-05-05 21:10 38.24278 147.82153 37349 ft 589 kts 53°
2026-05-05 21:11 38.28443 147.91042 37350 ft 589 kts 53°
2026-05-05 21:11 38.32626 147.99996 37354 ft 588 kts 53°
2026-05-05 21:12 38.36797 148.08951 37347 ft 587 kts 53°
2026-05-05 21:12 38.40958 148.17907 37349 ft 587 kts 53°
2026-05-05 21:13 38.45080 148.26804 37365 ft 585 kts 53°
2026-05-05 21:13 38.49195 148.35718 37347 ft 581 kts 53°
2026-05-05 21:14 38.53291 148.44606 37350 ft 581 kts 53°
2026-05-05 21:14 38.57381 148.53506 37349 ft 581 kts 53°
2026-05-05 21:15 38.61462 148.62412 37350 ft 580 kts 54°
2026-05-05 21:15 38.65503 148.71255 37349 ft 581 kts 54°
2026-05-05 21:16 38.69574 148.80192 37355 ft 580 kts 54°
2026-05-05 21:16 38.73624 148.89108 37351 ft 579 kts 54°
2026-05-05 21:17 38.77663 148.98023 37346 ft 579 kts 54°
2026-05-05 21:17 38.81669 149.06889 37348 ft 578 kts 54°
2026-05-05 21:18 38.85685 149.15805 37334 ft 577 kts 54°
2026-05-05 21:18 38.89691 149.24722 37342 ft 576 kts 54°
2026-05-05 21:19 38.93688 149.33643 37350 ft 577 kts 54°
2026-05-05 21:19 38.97659 149.42530 37350 ft 577 kts 54°
2026-05-05 21:20 39.01643 149.51473 37346 ft 577 kts 54°
2026-05-05 21:20 39.05620 149.60428 37349 ft 577 kts 54°
2026-05-05 21:21 39.09590 149.69393 37338 ft 575 kts 54°
2026-05-05 21:21 39.13512 149.78274 37350 ft 575 kts 55°
2026-05-05 21:22 39.17464 149.87232 37337 ft 574 kts 54°
2026-05-05 21:22 39.21436 149.96152 37340 ft 573 kts 54°
2026-05-05 21:23 39.25398 150.05054 37341 ft 572 kts 54°
2026-05-05 21:23 39.29326 150.13919 37341 ft 572 kts 54°
2026-05-05 21:24 39.33262 150.22840 37339 ft 571 kts 55°
2026-05-05 21:24 39.37188 150.31769 37335 ft 571 kts 55°
2026-05-05 21:25 39.41099 150.40685 37339 ft 571 kts 55°
2026-05-05 21:25 39.44351 150.48117 37348 ft 571 kts 55°
2026-05-05 21:26 39.48876 150.58494 37341 ft 569 kts 55°
2026-05-05 21:26 39.52106 150.65918 37337 ft 569 kts 55°
2026-05-05 21:27 39.55985 150.74857 37342 ft 569 kts 56°
2026-05-05 21:27 39.59843 150.83779 37337 ft 565 kts 56°
2026-05-05 21:28 39.64297 150.94110 37338 ft 564 kts 56°
2026-05-05 21:28 39.68120 151.02998 37338 ft 564 kts 56°
2026-05-05 21:29 39.71297 151.10408 37338 ft 564 kts 56°
2026-05-05 21:29 39.75100 151.19302 37338 ft 563 kts 56°
2026-05-05 21:30 39.78896 151.28203 37339 ft 563 kts 56°
2026-05-05 21:30 39.82658 151.37051 37340 ft 563 kts 56°
2026-05-05 21:31 39.86435 151.45964 37341 ft 561 kts 56°
2026-05-05 21:31 39.90195 151.54859 37341 ft 561 kts 56°
2026-05-05 21:32 39.94560 151.65215 37346 ft 561 kts 57°
2026-05-05 21:32 39.97694 151.72675 37337 ft 560 kts 57°
2026-05-05 21:33 40.01401 151.81520 37333 ft 560 kts 57°
2026-05-05 21:33 40.05125 151.90433 37334 ft 560 kts 57°
2026-05-05 21:34 40.08846 151.99366 37374 ft 559 kts 57°
2026-05-05 21:34 40.12540 152.08260 37338 ft 555 kts 57°
2026-05-05 21:35 40.16210 152.17123 37335 ft 554 kts 57°
2026-05-05 21:35 40.19849 152.25933 37328 ft 554 kts 57°
2026-05-05 21:36 40.23500 152.34799 37331 ft 554 kts 57°
2026-05-05 21:36 40.27149 152.43686 37330 ft 554 kts 57°
2026-05-05 21:37 40.30786 152.52572 37330 ft 554 kts 57°
2026-05-05 21:37 40.34395 152.61413 37312 ft 554 kts 57°
2026-05-05 21:38 40.38024 152.70333 37333 ft 554 kts 57°
2026-05-05 21:38 40.41644 152.79256 37329 ft 554 kts 57°
2026-05-05 21:39 40.45260 152.88193 37320 ft 554 kts 57°
2026-05-05 21:39 40.48835 152.97056 37321 ft 553 kts 58°
2026-05-05 21:40 40.52437 153.06014 37317 ft 553 kts 58°
2026-05-05 21:40 40.56023 153.14959 37321 ft 554 kts 58°
2026-05-05 21:41 40.59610 153.23932 37320 ft 554 kts 58°
2026-05-05 21:41 40.63164 153.32851 37323 ft 554 kts 58°
2026-05-05 21:42 40.66731 153.41830 37317 ft 553 kts 58°
2026-05-05 21:42 40.70286 153.50805 37311 ft 553 kts 58°
2026-05-05 21:43 40.73840 153.59800 37314 ft 553 kts 58°
2026-05-05 21:43 40.77361 153.68743 37314 ft 553 kts 58°
2026-05-05 21:44 40.80894 153.77743 37318 ft 553 kts 59°
2026-05-05 21:44 40.84428 153.86773 37300 ft 553 kts 59°
2026-05-05 21:45 40.87948 153.95796 37305 ft 553 kts 59°
2026-05-05 21:45 40.91461 154.04828 37306 ft 553 kts 59°
2026-05-05 21:46 40.94950 154.13825 37307 ft 553 kts 59°
2026-05-05 21:46 40.98448 154.22874 37308 ft 553 kts 59°
2026-05-05 21:47 41.01945 154.31949 37290 ft 553 kts 59°
2026-05-05 21:47 41.05428 154.41013 37285 ft 553 kts 59°
2026-05-05 21:48 41.08911 154.50106 37288 ft 553 kts 59°
2026-05-05 21:48 41.12362 154.59145 37307 ft 553 kts 59°
2026-05-05 21:49 41.15824 154.68240 37314 ft 551 kts 60°
2026-05-05 21:49 41.19260 154.77299 37293 ft 549 kts 60°
2026-05-05 21:50 41.22687 154.86358 37295 ft 549 kts 60°
2026-05-05 21:50 41.26082 154.95361 37288 ft 549 kts 60°
2026-05-05 21:51 41.29494 155.04436 37286 ft 549 kts 60°
2026-05-05 21:51 41.32898 155.13518 37287 ft 549 kts 60°
2026-05-05 21:52 41.37989 155.27159 37287 ft 549 kts 60°
2026-05-05 21:53 41.41353 155.36207 37282 ft 549 kts 60°
2026-05-05 21:53 41.44732 155.45323 37279 ft 549 kts 60°
2026-05-05 21:54 41.48103 155.54448 37276 ft 549 kts 60°
2026-05-05 21:54 41.51468 155.63585 37283 ft 549 kts 60°
2026-05-05 21:55 41.54802 155.72665 37275 ft 549 kts 60°
2026-05-05 21:55 41.58153 155.81823 37276 ft 549 kts 60°
2026-05-05 21:56 41.61496 155.90986 37274 ft 549 kts 61°
2026-05-05 21:56 41.64836 156.00171 37274 ft 549 kts 60°
2026-05-05 21:57 41.68135 156.09277 37268 ft 547 kts 61°
2026-05-05 21:57 41.71448 156.18448 37268 ft 547 kts 61°
2026-05-05 21:58 41.74752 156.27622 37270 ft 547 kts 61°
2026-05-05 21:58 41.78050 156.36811 37267 ft 547 kts 61°
2026-05-05 21:59 41.81318 156.45945 37266 ft 547 kts 61°
2026-05-05 21:59 41.84605 156.55160 37261 ft 547 kts 61°
2026-05-05 22:00 41.87882 156.64380 37260 ft 547 kts 61°
2026-05-05 22:00 41.91150 156.73607 37264 ft 547 kts 61°
2026-05-05 22:01 41.94391 156.82783 37265 ft 547 kts 61°
2026-05-05 22:01 41.97647 156.92034 37274 ft 547 kts 61°
2026-05-05 22:02 42.00890 157.01278 37254 ft 547 kts 61°
2026-05-05 22:02 42.04129 157.10542 37246 ft 547 kts 62°
2026-05-05 22:03 42.07360 157.19812 37260 ft 547 kts 62°
2026-05-05 22:03 42.10564 157.29037 37254 ft 547 kts 62°
2026-05-05 22:04 42.13779 157.38326 37264 ft 548 kts 62°
2026-05-05 22:04 42.16990 157.47632 37251 ft 547 kts 62°
2026-05-05 22:05 42.20191 157.56941 37258 ft 547 kts 62°
2026-05-05 22:05 42.23364 157.66198 37243 ft 548 kts 62°
2026-05-05 22:06 42.26556 157.75545 37241 ft 548 kts 62°
2026-05-05 22:06 42.29740 157.84897 37241 ft 548 kts 62°
2026-05-05 22:07 42.32919 157.94270 37238 ft 549 kts 62°
2026-05-05 22:07 42.36069 158.03586 37238 ft 549 kts 62°
2026-05-05 22:08 42.39238 158.12991 37242 ft 549 kts 62°
2026-05-05 22:08 42.42397 158.22400 37239 ft 550 kts 62°
2026-05-05 22:09 42.45556 158.31839 37233 ft 551 kts 62°
2026-05-05 22:09 42.48709 158.41293 37233 ft 551 kts 62°
2026-05-05 22:10 42.51834 158.50698 37233 ft 551 kts 62°
2026-05-05 22:10 42.54971 158.60171 37233 ft 551 kts 62°
2026-05-05 22:11 42.58102 158.69658 37230 ft 551 kts 63°
2026-05-05 22:11 42.61228 158.79164 37237 ft 551 kts 62°
2026-05-05 22:12 42.64321 158.88603 37222 ft 551 kts 63°
2026-05-05 22:12 42.67430 158.98123 37220 ft 552 kts 63°
2026-05-05 22:13 42.70537 159.07671 37223 ft 552 kts 63°
2026-05-05 22:13 42.73636 159.17232 37221 ft 552 kts 63°
2026-05-05 22:14 42.76730 159.26807 37222 ft 553 kts 63°
2026-05-05 22:14 42.79797 159.36334 37210 ft 554 kts 63°
2026-05-05 22:15 42.82883 159.45958 37209 ft 554 kts 63°
2026-05-05 22:15 42.85961 159.55588 37218 ft 554 kts 63°
2026-05-05 22:16 42.89035 159.65238 37211 ft 556 kts 63°
2026-05-05 22:16 42.92107 159.74919 37209 ft 556 kts 63°
2026-05-05 22:17 42.95153 159.84558 37207 ft 556 kts 64°
2026-05-05 22:17 42.98212 159.94267 37197 ft 557 kts 64°
2026-05-05 22:18 43.00606 160.04365 37196 ft 562 kts 76°
2026-05-05 22:18 43.02223 160.14818 37196 ft 563 kts 77°
2026-05-05 22:19 43.03697 160.25248 37195 ft 563 kts 78°
2026-05-05 22:19 43.05174 160.35785 37197 ft 565 kts 78°
2026-05-05 22:20 43.06662 160.46332 37200 ft 565 kts 78°
2026-05-05 22:20 43.08149 160.56877 37201 ft 565 kts 78°
2026-05-05 22:21 43.09622 160.67387 37195 ft 567 kts 78°
2026-05-05 22:21 43.11096 160.77985 37192 ft 568 kts 78°
2026-05-05 22:22 43.12561 160.88600 37202 ft 567 kts 79°
2026-05-05 22:22 43.14016 160.99222 37192 ft 569 kts 79°
2026-05-05 22:23 43.15467 161.09884 37192 ft 569 kts 79°
2026-05-05 22:23 43.16897 161.20475 37189 ft 569 kts 79°
2026-05-05 22:24 43.18327 161.31143 37188 ft 570 kts 79°
2026-05-05 22:24 43.19750 161.41837 37188 ft 571 kts 79°
2026-05-05 22:25 43.21160 161.52510 37183 ft 571 kts 79°
2026-05-05 22:25 43.22552 161.63135 37186 ft 572 kts 79°
2026-05-05 22:26 43.23952 161.73892 37183 ft 573 kts 79°
2026-05-05 22:26 43.25342 161.84660 37178 ft 573 kts 79°
2026-05-05 22:27 43.26723 161.95438 37178 ft 573 kts 79°
2026-05-05 22:27 43.28084 162.06148 37178 ft 573 kts 79°
2026-05-05 22:28 43.29443 162.16923 37176 ft 573 kts 80°
2026-05-05 22:28 43.30794 162.27716 37179 ft 573 kts 80°
2026-05-05 22:29 43.32136 162.38528 37176 ft 575 kts 80°
2026-05-05 22:29 43.33461 162.49295 37177 ft 576 kts 80°
2026-05-05 22:30 43.34788 162.60155 37177 ft 576 kts 80°
2026-05-05 22:30 43.36104 162.71019 37175 ft 578 kts 81°
2026-05-05 22:31 43.37415 162.81927 37173 ft 579 kts 81°
2026-05-05 22:31 43.38718 162.92869 37172 ft 579 kts 81°
2026-05-05 22:32 43.40000 163.03718 37173 ft 580 kts 81°
2026-05-05 22:32 43.41283 163.14677 37169 ft 581 kts 81°
2026-05-05 22:33 43.42557 163.25647 37164 ft 581 kts 81°
2026-05-05 22:33 43.43821 163.36623 37157 ft 581 kts 81°
2026-05-05 22:34 43.45069 163.47560 37171 ft 582 kts 81°
2026-05-05 22:34 43.46315 163.58574 37155 ft 583 kts 82°
2026-05-05 22:35 43.47551 163.69600 37163 ft 583 kts 82°
2026-05-05 22:35 43.48777 163.80633 37157 ft 584 kts 82°
2026-05-05 22:36 43.49996 163.91705 37146 ft 585 kts 82°
2026-05-05 22:36 43.51196 164.02703 37149 ft 584 kts 82°
2026-05-05 22:37 43.52394 164.13786 37139 ft 585 kts 82°
2026-05-05 22:37 43.53582 164.24885 37150 ft 586 kts 82°
2026-05-05 22:38 43.54760 164.35995 37147 ft 586 kts 82°
2026-05-05 22:38 43.55928 164.47108 37147 ft 586 kts 83°
2026-05-05 22:39 43.57078 164.58159 37136 ft 586 kts 83°
2026-05-05 22:39 43.58226 164.69298 37137 ft 586 kts 83°
2026-05-05 22:40 43.59361 164.80425 37132 ft 587 kts 83°
2026-05-05 22:40 43.60489 164.91595 37135 ft 589 kts 83°
2026-05-05 22:41 43.61602 165.02719 37133 ft 589 kts 84°
2026-05-05 22:41 43.62711 165.13916 37130 ft 589 kts 84°
2026-05-05 22:42 43.63809 165.25116 37132 ft 589 kts 84°
2026-05-05 22:42 43.64896 165.36328 37126 ft 589 kts 84°
2026-05-05 22:43 43.65964 165.47460 37128 ft 589 kts 84°
2026-05-05 22:43 43.67029 165.58675 37122 ft 589 kts 84°
2026-05-05 22:44 43.68083 165.69884 37121 ft 589 kts 84°
2026-05-05 22:44 43.69126 165.81103 37105 ft 589 kts 85°
2026-05-05 22:45 43.70157 165.92321 37119 ft 589 kts 85°
2026-05-05 22:45 43.71173 166.03493 37115 ft 589 kts 85°
2026-05-05 22:46 43.72183 166.14726 37098 ft 589 kts 85°
2026-05-05 22:46 43.73183 166.25975 37106 ft 590 kts 85°
2026-05-05 22:47 43.74173 166.37243 37107 ft 590 kts 85°
2026-05-05 22:47 43.75146 166.48434 37104 ft 590 kts 85°
2026-05-05 22:48 43.76115 166.59717 37102 ft 591 kts 86°
2026-05-05 22:48 43.77073 166.71016 37094 ft 592 kts 86°
2026-05-05 22:49 43.78023 166.82332 37094 ft 592 kts 86°
2026-05-05 22:49 43.78955 166.93578 37093 ft 593 kts 86°
2026-05-05 22:50 43.79884 167.04940 37096 ft 594 kts 86°
2026-05-05 22:50 43.80803 167.16308 37091 ft 594 kts 86°
2026-05-05 22:51 43.81711 167.27675 37085 ft 594 kts 87°
2026-05-05 22:51 43.82602 167.38980 37086 ft 594 kts 87°
2026-05-05 22:52 43.83487 167.50358 37084 ft 594 kts 87°
2026-05-05 22:52 43.84360 167.61736 37067 ft 594 kts 88°
2026-05-05 22:53 43.85223 167.73126 37075 ft 594 kts 88°
2026-05-05 22:53 43.86074 167.84515 37069 ft 594 kts 88°
2026-05-05 22:54 43.86908 167.95831 37043 ft 594 kts 88°
2026-05-05 22:54 43.87736 168.07206 37071 ft 594 kts 89°
2026-05-05 22:55 43.88553 168.18610 37068 ft 595 kts 89°
2026-05-05 22:55 43.89360 168.30021 37065 ft 594 kts 89°
2026-05-05 22:56 43.90150 168.41349 37059 ft 595 kts 89°
2026-05-05 22:56 43.90934 168.52766 37063 ft 595 kts 89°
2026-05-05 22:57 43.91706 168.64185 37063 ft 595 kts 89°
2026-05-05 22:57 43.92468 168.75611 37045 ft 595 kts 90°
2026-05-05 22:58 43.93213 168.86983 37053 ft 597 kts 90°
2026-05-05 22:58 43.93955 168.98461 37045 ft 597 kts 90°
2026-05-05 22:59 43.94685 169.09932 37045 ft 597 kts 90°
2026-05-05 22:59 43.95403 169.21404 37038 ft 597 kts 90°
2026-05-05 23:00 43.96453 169.38514 37043 ft 596 kts 90°
2026-05-05 23:00 43.97142 169.49990 37035 ft 596 kts 91°
2026-05-05 23:01 43.97819 169.61467 37031 ft 597 kts 91°
2026-05-05 23:01 43.98485 169.72946 37028 ft 596 kts 91°
2026-05-05 23:02 43.99135 169.84332 37019 ft 596 kts 92°
2026-05-05 23:02 43.99777 169.95823 37022 ft 597 kts 92°
2026-05-05 23:03 43.99608 170.07200 37020 ft 586 kts 101°
2026-05-05 23:03 43.99022 170.18469 36984 ft 585 kts 104°
2026-05-05 23:04 43.98350 170.29734 37016 ft 587 kts 104°
2026-05-05 23:04 43.97672 170.40970 37012 ft 589 kts 104°
2026-05-05 23:05 43.96998 170.52296 37003 ft 588 kts 104°
2026-05-05 23:05 43.96319 170.63612 36996 ft 589 kts 104°
2026-05-05 23:06 43.95626 170.74947 36996 ft 589 kts 104°
2026-05-05 23:06 43.94927 170.86191 36993 ft 589 kts 104°
2026-05-05 23:07 43.94212 170.97514 36987 ft 588 kts 104°
2026-05-05 23:07 43.93486 171.08813 36984 ft 587 kts 104°
2026-05-05 23:08 43.92749 171.20098 36984 ft 587 kts 104°
2026-05-05 23:08 43.92002 171.31377 36963 ft 587 kts 105°
2026-05-05 23:09 43.91251 171.42552 36979 ft 586 kts 105°
2026-05-05 23:09 43.90484 171.53794 36965 ft 585 kts 105°
2026-05-05 23:10 43.89706 171.65016 36970 ft 585 kts 105°
2026-05-05 23:10 43.88919 171.76219 36966 ft 583 kts 105°
2026-05-05 23:11 43.88129 171.87318 36960 ft 582 kts 105°
2026-05-05 23:11 43.87322 171.98473 36959 ft 582 kts 105°
2026-05-05 23:12 43.86504 172.09633 36962 ft 581 kts 105°
2026-05-05 23:12 43.85679 172.20758 36952 ft 580 kts 105°
2026-05-05 23:13 43.84843 172.31881 36952 ft 580 kts 105°
2026-05-05 23:13 43.84001 172.42919 36911 ft 580 kts 105°
2026-05-05 23:14 43.83145 172.54011 36947 ft 579 kts 105°
2026-05-05 23:14 43.82280 172.65081 36949 ft 578 kts 105°
2026-05-05 23:15 43.81410 172.76075 36941 ft 578 kts 105°
2026-05-05 23:15 43.80523 172.87135 36899 ft 578 kts 105°
2026-05-05 23:16 43.79627 172.98179 36938 ft 578 kts 105°
2026-05-05 23:16 43.78721 173.09221 36930 ft 577 kts 105°
2026-05-05 23:17 43.77803 173.20261 36928 ft 577 kts 105°
2026-05-05 23:17 43.76885 173.31186 36922 ft 575 kts 105°
2026-05-05 23:18 43.75950 173.42179 36924 ft 575 kts 105°
2026-05-05 23:18 43.75004 173.53173 36918 ft 575 kts 105°
2026-05-05 23:19 43.74057 173.64051 36915 ft 574 kts 105°
2026-05-05 23:19 43.73092 173.75018 36908 ft 574 kts 105°
2026-05-05 23:20 43.72118 173.85956 36914 ft 573 kts 105°
2026-05-05 23:20 43.71134 173.96893 36905 ft 573 kts 105°
2026-05-05 23:21 43.70140 174.07819 36903 ft 574 kts 105°
2026-05-05 23:21 43.69143 174.18678 36897 ft 573 kts 105°
2026-05-05 23:22 43.68129 174.29590 36850 ft 572 kts 105°
2026-05-05 23:22 43.67103 174.40496 36896 ft 572 kts 104°
2026-05-05 23:23 43.66070 174.51389 36896 ft 572 kts 105°
2026-05-05 23:23 43.65033 174.62207 36889 ft 572 kts 105°
2026-05-05 23:24 43.63980 174.73086 36883 ft 572 kts 104°
2026-05-05 23:24 43.62915 174.83966 36887 ft 572 kts 104°
2026-05-05 23:25 43.61842 174.94833 36887 ft 572 kts 104°
2026-05-05 23:25 43.60763 175.05637 36859 ft 572 kts 104°
2026-05-05 23:26 43.59670 175.16491 36884 ft 571 kts 104°
2026-05-05 23:26 43.58565 175.27353 36884 ft 571 kts 104°
2026-05-05 23:27 43.57451 175.38192 36883 ft 571 kts 104°
2026-05-05 23:27 43.56335 175.48949 36881 ft 571 kts 104°
2026-05-05 23:28 43.55201 175.59783 36878 ft 571 kts 104°
2026-05-05 23:28 43.54057 175.70611 36879 ft 571 kts 104°
2026-05-05 23:29 43.52904 175.81422 36854 ft 571 kts 103°
2026-05-05 23:29 43.51746 175.92169 36884 ft 571 kts 103°
2026-05-05 23:30 43.50571 176.02990 36887 ft 571 kts 103°
2026-05-05 23:30 43.49387 176.13803 36889 ft 571 kts 104°
2026-05-05 23:31 43.48191 176.24612 36885 ft 571 kts 103°
2026-05-05 23:31 43.46984 176.35428 36887 ft 572 kts 103°
2026-05-05 23:32 43.45774 176.46177 36886 ft 572 kts 103°
2026-05-05 23:32 43.44548 176.56977 36892 ft 571 kts 103°
2026-05-05 23:33 43.43311 176.67779 36900 ft 571 kts 104°
2026-05-05 23:33 43.42063 176.78579 36900 ft 571 kts 104°
2026-05-05 23:34 43.40815 176.89298 36903 ft 571 kts 104°
2026-05-05 23:34 43.39547 177.00081 36907 ft 571 kts 103°
2026-05-05 23:35 43.38268 177.10866 36924 ft 572 kts 103°
2026-05-05 23:35 43.36981 177.21644 36923 ft 572 kts 103°
2026-05-05 23:36 43.35691 177.32356 36913 ft 572 kts 103°
2026-05-05 23:36 43.34382 177.43135 36933 ft 571 kts 103°
2026-05-05 23:37 43.33064 177.53900 36920 ft 571 kts 103°
2026-05-05 23:37 43.31737 177.64651 36927 ft 571 kts 103°
2026-05-05 23:38 43.30408 177.75332 36941 ft 571 kts 103°
2026-05-05 23:38 43.29061 177.86079 36936 ft 571 kts 103°
2026-05-05 23:39 43.27702 177.96829 36938 ft 571 kts 103°
2026-05-05 23:39 43.26335 178.07563 36956 ft 571 kts 103°
2026-05-05 23:40 43.24955 178.18305 36956 ft 571 kts 103°
2026-05-05 23:40 43.23567 178.29039 36959 ft 572 kts 103°
2026-05-05 23:41 43.22178 178.39692 36965 ft 571 kts 103°
2026-05-05 23:41 43.20770 178.50410 36971 ft 571 kts 103°
2026-05-05 23:42 43.19352 178.61128 36975 ft 571 kts 103°
2026-05-05 23:42 43.17933 178.71770 36974 ft 571 kts 103°
2026-05-05 23:43 43.16495 178.82475 36983 ft 571 kts 103°
2026-05-05 23:43 43.15048 178.93171 36988 ft 571 kts 102°
2026-05-05 23:44 43.13590 179.03867 36988 ft 572 kts 102°
2026-05-05 23:44 43.12121 179.14559 36996 ft 572 kts 102°
2026-05-05 23:45 43.10652 179.25178 37001 ft 571 kts 102°
2026-05-05 23:45 43.09164 179.35859 36995 ft 572 kts 102°
2026-05-05 23:46 43.07664 179.46549 37013 ft 572 kts 102°
2026-05-05 23:46 43.06154 179.57235 37013 ft 572 kts 102°
2026-05-05 23:47 43.04644 179.67849 37012 ft 572 kts 102°
2026-05-05 23:47 43.03113 179.78534 37012 ft 573 kts 102°
2026-05-05 23:48 43.01571 179.89219 37023 ft 573 kts 102°
2026-05-05 23:48 43.00019 179.99898 37023 ft 573 kts 102°
2026-05-05 23:49 42.98428 -179.89440 37035 ft 573 kts 102°
2026-05-05 23:49 42.96799 -179.78854 37034 ft 573 kts 102°
2026-05-05 23:50 42.95153 -179.68206 37037 ft 573 kts 102°
2026-05-05 23:50 42.93502 -179.57551 37037 ft 573 kts 102°
2026-05-05 23:51 42.91849 -179.46925 37041 ft 573 kts 102°
2026-05-05 23:51 42.90193 -179.36350 37048 ft 573 kts 102°
2026-05-05 23:52 42.88517 -179.25721 37045 ft 573 kts 102°
2026-05-05 23:52 42.86832 -179.15099 37047 ft 574 kts 102°
2026-05-05 23:53 42.85135 -179.04471 37054 ft 574 kts 102°
2026-05-05 23:53 42.83428 -178.93850 37051 ft 574 kts 102°
2026-05-05 23:54 42.81722 -178.83298 37072 ft 574 kts 102°
2026-05-05 23:54 42.79994 -178.72688 37065 ft 574 kts 102°
2026-05-05 23:55 42.78257 -178.62072 37066 ft 574 kts 102°
2026-05-05 23:55 42.76510 -178.51468 37069 ft 574 kts 102°
2026-05-05 23:56 42.74765 -178.40947 37070 ft 574 kts 102°
2026-05-05 23:56 42.73000 -178.30365 37073 ft 574 kts 102°
2026-05-05 23:57 42.71227 -178.19790 37075 ft 574 kts 102°
2026-05-05 23:57 42.69443 -178.09219 37078 ft 574 kts 102°
2026-05-05 23:58 42.67661 -177.98729 37085 ft 574 kts 102°
2026-05-05 23:58 42.65856 -177.88161 37084 ft 574 kts 102°
2026-05-05 23:59 42.64042 -177.77605 37087 ft 574 kts 102°
2026-05-05 23:59 42.62217 -177.67045 37088 ft 574 kts 101°
2026-05-06 00:00 42.60395 -177.56571 37083 ft 575 kts 101°
2026-05-06 00:00 42.58549 -177.46019 37059 ft 575 kts 102°
2026-05-06 00:01 42.56694 -177.35473 37088 ft 574 kts 102°
2026-05-06 00:01 42.54829 -177.24930 37090 ft 574 kts 101°
2026-05-06 00:02 42.52958 -177.14417 37085 ft 573 kts 101°
2026-05-06 00:02 42.51090 -177.03977 37087 ft 573 kts 101°
2026-05-06 00:03 42.49203 -176.93497 37105 ft 574 kts 101°
2026-05-06 00:03 42.47304 -176.83001 37084 ft 573 kts 101°
2026-05-06 00:04 42.45395 -176.72519 37096 ft 573 kts 101°
2026-05-06 00:04 42.43490 -176.62111 37081 ft 573 kts 101°
2026-05-06 00:05 42.40596 -176.46413 37085 ft 573 kts 101°
2026-05-06 00:06 42.38655 -176.35953 37089 ft 573 kts 101°
2026-05-06 00:06 42.36716 -176.25566 37088 ft 574 kts 101°
2026-05-06 00:07 42.34752 -176.15119 37096 ft 574 kts 101°
2026-05-06 00:07 42.32729 -176.04667 37084 ft 574 kts 101°
2026-05-06 00:08 42.31007 -175.96026 37136 ft 573 kts 102°
2026-05-06 00:08 42.28547 -175.83956 37125 ft 574 kts 102°
2026-05-06 00:09 42.26401 -175.73574 37076 ft 575 kts 102°
2026-05-06 00:09 42.24237 -175.63196 37100 ft 574 kts 102°
2026-05-06 00:10 42.22427 -175.54576 37132 ft 574 kts 102°
2026-05-06 00:10 42.19890 -175.42546 37109 ft 574 kts 102°
2026-05-06 00:11 42.17649 -175.32197 37076 ft 575 kts 103°
2026-05-06 00:11 42.15713 -175.23618 37089 ft 575 kts 103°
2026-05-06 00:12 42.13326 -175.13337 37116 ft 575 kts 104°
2026-05-06 00:12 42.10483 -175.01394 37115 ft 576 kts 104°
2026-05-06 00:13 42.08338 -174.92829 37056 ft 578 kts 105°
2026-05-06 00:13 42.05682 -174.82697 37081 ft 577 kts 106°
2026-05-06 00:14 42.02935 -174.72567 37131 ft 577 kts 107°
2026-05-06 00:14 42.00133 -174.62452 37112 ft 578 kts 106°
2026-05-06 00:15 41.97314 -174.52308 37046 ft 579 kts 106°
2026-05-06 00:15 41.94524 -174.42241 37079 ft 578 kts 106°
2026-05-06 00:16 41.91725 -174.32125 37122 ft 577 kts 106°
2026-05-06 00:16 41.88916 -174.22023 37092 ft 579 kts 106°
2026-05-06 00:17 41.86046 -174.11892 36991 ft 581 kts 106°
2026-05-06 00:17 41.83149 -174.01792 37047 ft 580 kts 107°
2026-05-06 00:18 41.80270 -173.91807 37142 ft 578 kts 107°
2026-05-06 00:18 41.77352 -173.81754 37090 ft 580 kts 106°
2026-05-06 00:19 41.74409 -173.71670 36968 ft 582 kts 106°